This is the latest recevied weather packets stored in our database for station/object CA3DJL-10. If no packets are shown the sender has not sent any weather packets the latest 1 day(s).
| Time | Temp. | Humidity | Pressure | Rain* | Wind** | Luminosity | Snow |
|---|---|---|---|---|---|---|---|
| 1778093097 | 20.56° C | 43% | 987 hPa | - | - | - | - |
| 1778092196 | 20.56° C | 44% | 987 hPa | - | - | - | - |
| 1778091295 | 20° C | 47% | 987 hPa | - | - | - | - |
| 1778090394 | 20° C | 47% | 987 hPa | - | - | - | - |
| 1778089493 | 20° C | 46% | 987 hPa | - | - | - | - |
| 1778080482 | 18.89° C | 44% | 986 hPa | - | - | - | - |
| 1778079581 | 18.89° C | 41% | 986 hPa | - | - | - | - |
| 1778078680 | 18.89° C | 42% | 986 hPa | - | - | - | - |
| 1778076878 | 18.89° C | 40% | 985 hPa | - | - | - | - |
| 1778075977 | 18.89° C | 40% | 985 hPa | - | - | - | - |
| 1778075076 | 17.78° C | 40% | 985 hPa | - | - | - | - |
| 1778067867 | 12.78° C | 38% | 985 hPa | - | - | - | - |
| 1778066966 | 12.78° C | 37% | 985 hPa | - | - | - | - |
| 1778066065 | 12.78° C | 37% | 985 hPa | - | - | - | - |
| 1778065164 | 13.33° C | 38% | 985 hPa | - | - | - | - |
| 1778064262 | 13.33° C | 38% | 985 hPa | - | - | - | - |
| 1778063361 | 13.33° C | 36% | 985 hPa | - | - | - | - |
| 1778062460 | 13.33° C | 35% | 984 hPa | - | - | - | - |
| 1778061559 | 13.33° C | 35% | 984 hPa | - | - | - | - |
| 1778060658 | 13.89° C | 36% | 984 hPa | - | - | - | - |
| 1778059757 | 13.89° C | 36% | 984 hPa | - | - | - | - |
| 1778058856 | 13.89° C | 36% | 984 hPa | - | - | - | - |
| 1778057955 | 13.89° C | 37% | 984 hPa | - | - | - | - |
| 1778054350 | 15° C | 35% | 984 hPa | - | - | - | - |
| 1778050746 | 15.56° C | 34% | 984 hPa | - | - | - | - |
* Rain since midnight (hover to see other rain measurements)
** Current wind speed in m/s (hover to see current wind gust speed)